Regional Weather Roundup
Issued by NWS

Home | Current Version | Previous Version | Text Only | Print | Product List | Glossary On
Versions: 1 2 3 4 5 6 7 8 9 10 11 12 13 14 15 16 17 18 19 20 21 22 23 24 25 26 27 28 29 30 31 32 33 34 35 36 37 38 39 40 41 42 43 44 45 46 47 48 49 50
428
ASUS43 KLMK 191702
RWRKY
KENTUCKY REGIONAL WEATHER ROUNDUP
NATIONAL WEATHER SERVICE LOUISVILLE KY
100 PM EDT THU OCT 19 2017

NOTE "FAIR" INDICATES FEW OR NO CLOUDS BELOW 12,000 FEET
WITH NO SIGNIFICANT WEATHER AND/OR OBSTRUCTIONS TO VISIBILITY.

KYZ001>023-026-027-061>063-070>075-191800-
WESTERN AND SOUTH CENTRAL KENTUCKY

CITY           SKY/WX    TMP DP  RH WIND       PRES   REMARKS
PADUCAH        SUNNY     72  48  42 SW10      30.25F
HENDERSON      SUNNY     72  52  49 SW10      30.26R
OWENSBORO      SUNNY     71  51  49 SW12      30.26F
HOPKINSVILLE   SUNNY     70  48  45 SW9       30.29S
BOWLING GREEN  SUNNY     70  49  47 SW10      30.30F
GLASGOW        SUNNY     69  49  49 SW8       30.31F
$$

KYZ024-025-028>034-038-045-046-053-191800-
NORTH CENTRAL KENTUCKY

CITY           SKY/WX    TMP DP  RH WIND       PRES   REMARKS
LOUISVILLE/SDF MOSUNNY   70  49  47 SW9       30.27F
LOUISVILLE/LOU SUNNY     69  51  52 SW10      30.28F
FORT KNOX      SUNNY     69  48  47 SW9       30.27S
$$

KYZ035>037-039>044-047>052-055>060-089>105-191800-
NORTHEAST KENTUCKY

CITY           SKY/WX    TMP DP  RH WIND       PRES   REMARKS
LEXINGTON      SUNNY     68  49  50 W12       30.30F
COVINGTON      PTSUNNY   67  51  56 SW10      30.24F
FRANKFORT      SUNNY     69  47  45 SW8       30.29S
$$

KYZ054-064>069-076>088-106>120-191800-
SOUTHEAST KENTUCKY

CITY           SKY/WX    TMP DP  RH WIND       PRES   REMARKS
JACKSON        SUNNY     67  47  48 VRB5      30.33F
LONDON         SUNNY     65  43  44 W8        30.34F
SOMERSET       SUNNY     64  45  48 W7        30.34F
MIDDLESBORO    SUNNY     66  47  50 CALM      30.34F
MONTICELLO     SUNNY     67  47  48 SW15G21   30.35F
$$





USA.gov is the U.S. government's official web portal to all federal, state and local government web resources and services.